Regional Weather Roundup
Issued by NWS Albany, NY

Home | Current Version | Previous Version | Text Only | Print | Product List | Glossary On
Versions: 1 2 3 4 5 6 7 8 9 10 11 12 13 14 15 16 17 18 19 20 21 22 23 24 25 26 27 28 29 30 31 32 33 34 35 36 37 38 39 40 41 42 43 44 45 46 47 48 49 50
000
ASUS41 KALY 250710
RWRALY

NEW YORK STATE HOURLY WEATHER ROUNDUP
NATIONAL WEATHER SERVICE ALBANY NY
200 AM EST SUN JAN 25 2015

NOTE: "FAIR" INDICATES FEW OR NO CLOUDS BELOW 12,000 FEET WITH NO
SIGNIFICANT WEATHER AND/OR NO OBSTRUCTIONS TO VISIBILITY.

NYZ032-033-038>043-046>054-057>066-NYZ062>081-250800-
EAST


CITY           SKY/WX    TMP DP  RH WIND       PRES   REMARKS
ALBANY         FLURRIES  34  25  69 W10       29.44R WCI  26
GLENS FALLS    CLOUDY    33  24  69 SW8       29.38R WCI  26
POUGHKEEPSIE   MOCLDY    34  25  69 SW8       29.49R WCI  27
MONTGOMERY     CLOUDY    34  25  69 W6        29.49R WCI  29
WHITE PLAINS   PTCLDY    34  24  67 W17G23    29.49R WCI  23
ISLIP          MOCLDY    34  25  69 W13       29.49R WCI  25
NEW YORK CITY  MOCLDY    36  25  64 W15G24    29.53R WCI  27
CENTRAL PARK   CLOUDY    37  24  59 W7        29.56R WCI  32
$$

NYZ005>009-017-018-044>046-055-056-250800-
CENTRAL


CITY           SKY/WX    TMP DP  RH WIND       PRES   REMARKS
FULTON         CLOUDY    34  28  79 W16       29.47R WCI  24
SYRACUSE       FLURRIES  29  29 100 W15       29.48R WCI  18
ROME           CLOUDY    31  28  89 W13       29.46R WCI  21
ELMIRA         FLURRIES  33  26  75 SW7       29.52R WCI  27
BINGHAMTON     FLURRIES  28  24  85 W14       29.46R WCI  17
MONTICELLO     CLOUDY    28  25  86 W9        29.47R WCI  20
$$

NYZ026>034-041>043-250800-
NORTH


CITY           SKY/WX    TMP DP  RH WIND       PRES   REMARKS
WATERTOWN      CLOUDY    34  30  85 W14G22    29.43R WCI  25
FORT DRUM      NOT AVBL
MASSENA        CLOUDY    30  25  81 NW14G26   29.39R WCI  19
SARANAC LAKE   LGT SNOW  26  24  92 W10       29.27R FOG     WCI  16
PLATTSBURGH    CLOUDY    32  25  75 VRB3      29.31R
$$

NYZ001>004-010>016-019>021-250800-
WEST


CITY           SKY/WX    TMP DP  RH WIND       PRES   REMARKS
NIAGARA FALLS  PTCLDY    30  21  69 W15       29.57R WCI  19
BUFFALO        CLOUDY    32  26  78 W14       29.57R WCI  22
DUNKIRK        CLOUDY    32  30  92 W15G29    29.63R WCI  22
JAMESTOWN      CLOUDY    30  27  86 NW18G24   29.57R WCI  18
WELLSVILLE     LGT SNOW  28  25  88 W12       29.51R FOG     WCI  18
ROCHESTER      CLOUDY    33  24  69 NW14G24   29.53R WCI  23
PENN YAN       FLURRIES  33  27  78 SW9       29.51R WCI  25
$$

             KEY
       WCI = WIND CHILL INDEX
       VSB = VISIBILITY
       HX  = HEAT INDEX
$$



USA.gov is the U.S. government's official web portal to all federal, state and local government web resources and services.